Station Historical Data
Daily Summary for February 18, 2017 Units:  Metric    English   Both
Next Day »
Daily Weekly Monthly Yearly Custom
  High: Low: Average:
Temperature: 8.6 °C 4.6 °C 7.2 °C
Dew Point: 7.6 °C 3.7 °C 6.1 °C
Humidity: 94% 93% 93%
Wind Speed: 29km/h 0km/h 9km/h
Wind Gust: 32.2km/h - -
Wind- - South
Pressure: 1008.4 hPa 995.5 hPa -
Precipitation: 0 mm    
Historical Graphs
 
 
Tabular Data for February 18, 2017
Time Temperature Dew Point Pressure Wind Wind Speed Wind Gust Humidity Rainfall Rate (Hourly) solar Conditions
00:01 7 °C 5.9 °C 995.5 hPa SSE 6.4 km/h 14.5 km/h 93% 0 mm 0.00 W/m2
00:06 7 °C 5.9 °C 995.5 hPa South 3.2 km/h 16.1 km/h 93% 0 mm 0.00 W/m2
00:11 7.1 °C 6 °C 995.5 hPa SSE 12.9 km/h 12.9 km/h 93% 0 mm 0.00 W/m2
00:16 7.1 °C 6 °C 995.8 hPa SSE 16.1 km/h 20.9 km/h 93% 0 mm 0.00 W/m2
00:22 7.1 °C 6 °C 995.8 hPa SSE 14.5 km/h 16.1 km/h 93% 4.83 mm 0.00 W/m2
00:27 7.1 °C 6 °C 995.8 hPa SE 9.7 km/h 12.9 km/h 93% 3.3 mm 0.00 W/m2
00:32 7.1 °C 6 °C 995.8 hPa SSE 11.3 km/h 14.5 km/h 93% 2.54 mm 0.00 W/m2
00:37 7.1 °C 6.1 °C 995.8 hPa Calm   11.3 km/h 93% 1.52 mm 0.00 W/m2
00:42 7.1 °C 6 °C 995.8 hPa SSE 11.3 km/h 14.5 km/h 93% 1.52 mm 0.00 W/m2
00:47 7.1 °C 6 °C 995.8 hPa SE 6.4 km/h 12.9 km/h 93% 1.52 mm 0.00 W/m2
00:52 7.1 °C 6.1 °C 996.2 hPa SE 6.4 km/h 14.5 km/h 93% 2.54 mm 0.00 W/m2
00:57 7.1 °C 6.1 °C 996.2 hPa SE 11.3 km/h 14.5 km/h 93% 2.54 mm 0.00 W/m2
01:02 7.1 °C 6.1 °C 996.2 hPa SSE 14.5 km/h 22.5 km/h 93% 2.29 mm 0.00 W/m2
01:07 7.1 °C 6 °C 996.2 hPa SE 16.1 km/h 29 km/h 93% 1.52 mm 0.00 W/m2
01:12 7.1 °C 6 °C 996.2 hPa SE 17.7 km/h 20.9 km/h 93% 1.02 mm 0.00 W/m2
01:17 7.1 °C 6 °C 996.2 hPa SE 12.9 km/h 29 km/h 93% 1.02 mm 0.00 W/m2
01:22 7.1 °C 6.1 °C 996.5 hPa SE 9.7 km/h 22.5 km/h 93% 1.02 mm 0.00 W/m2
01:27 7.1 °C 6.1 °C 996.5 hPa SSE 16.1 km/h 27.4 km/h 93% 1.02 mm 0.00 W/m2
01:32 7.1 °C 6 °C 996.5 hPa SE 17.7 km/h 20.9 km/h 93% 0 mm 0.00 W/m2
01:37 7.1 °C 6 °C 996.5 hPa SE 9.7 km/h 24.1 km/h 93% 0 mm 0.00 W/m2
01:42 7.1 °C 6 °C 996.5 hPa SSE 11.3 km/h 24.1 km/h 93% 0 mm 0.00 W/m2
01:47 7.1 °C 6 °C 996.5 hPa South 17.7 km/h 22.5 km/h 93% 0 mm 0.00 W/m2
01:52 7.1 °C 6 °C 996.8 hPa SSE 3.2 km/h 17.7 km/h 93% 0 mm 0.00 W/m2
01:57 7.1 °C 6.1 °C 996.8 hPa South 3.2 km/h 32.2 km/h 93% 2.03 mm 0.00 W/m2
02:02 7.1 °C 6.1 °C 996.8 hPa South 16.1 km/h 32.2 km/h 93% 2.03 mm 0.00 W/m2
02:07 7.1 °C 6 °C 996.8 hPa SSE 12.9 km/h 27.4 km/h 93% 2.03 mm 0.00 W/m2
02:12 7.1 °C 6 °C 997.2 hPa SSW 17.7 km/h 19.3 km/h 93% 1.78 mm 0.00 W/m2
02:17 7 °C 5.9 °C 997.2 hPa SSE 19.3 km/h 20.9 km/h 93% 1.78 mm 0.00 W/m2
02:22 7 °C 5.9 °C 997.2 hPa SSE 9.7 km/h 19.3 km/h 93% 1.52 mm 0.00 W/m2
02:27 6.9 °C 5.9 °C 997.2 hPa South 17.7 km/h 22.5 km/h 93% 1.02 mm 0.00 W/m2
02:32 6.9 °C 5.9 °C 997.2 hPa SSE 16.1 km/h 30.6 km/h 93% 0 mm 0.00 W/m2
02:37 6.9 °C 5.9 °C 997.2 hPa SE 12.9 km/h 19.3 km/h 93% 0 mm 0.00 W/m2
02:42 6.9 °C 5.8 °C 997.2 hPa SSE 16.1 km/h 24.1 km/h 93% 0 mm 0.00 W/m2
02:47 6.9 °C 5.8 °C 997.2 hPa SSE 9.7 km/h 16.1 km/h 93% 0 mm 0.00 W/m2
02:52 6.9 °C 5.8 °C 997.5 hPa South 9.7 km/h 22.5 km/h 93% 0 mm 0.00 W/m2
02:57 6.9 °C 5.8 °C 997.5 hPa SE 3.2 km/h 29 km/h 93% 0 mm 0.00 W/m2
03:02 6.9 °C 5.9 °C 997.5 hPa SSE 14.5 km/h 22.5 km/h 93% 0 mm 0.00 W/m2
03:07 6.9 °C 5.9 °C 997.5 hPa South 17.7 km/h 17.7 km/h 93% 0 mm 0.00 W/m2
03:12 6.9 °C 5.9 °C 997.5 hPa SSE 14.5 km/h 27.4 km/h 93% 0 mm 0.00 W/m2
03:17 6.9 °C 5.9 °C 997.5 hPa SSE 6.4 km/h 19.3 km/h 93% 0 mm 0.00 W/m2
03:22 6.9 °C 5.9 °C 997.5 hPa SSE 9.7 km/h 17.7 km/h 93% 0 mm 0.00 W/m2
03:27 6.9 °C 5.9 °C 997.5 hPa SE 16.1 km/h 22.5 km/h 93% 0 mm 0.00 W/m2
03:32 6.9 °C 5.9 °C 997.9 hPa SSE 20.9 km/h 20.9 km/h 93% 0 mm 0.00 W/m2
03:37 6.9 °C 5.9 °C 997.9 hPa SSE 11.3 km/h 17.7 km/h 93% 0 mm 0.00 W/m2
03:42 6.9 °C 5.9 °C 997.9 hPa SSE 11.3 km/h 19.3 km/h 93% 0 mm 0.00 W/m2
03:47 6.9 °C 5.9 °C 997.9 hPa SE 20.9 km/h 30.6 km/h 93% 0 mm 0.00 W/m2
03:52 6.9 °C 5.9 °C 997.9 hPa SSE 19.3 km/h 24.1 km/h 93% 0 mm 0.00 W/m2
03:57 6.9 °C 5.9 °C 997.9 hPa SE 8 km/h 19.3 km/h 93% 0 mm 0.00 W/m2
04:03 6.9 °C 5.9 °C 997.9 hPa SE 20.9 km/h 24.1 km/h 93% 0 mm 0.00 W/m2
04:08 6.9 °C 5.9 °C 997.9 hPa SSE 9.7 km/h 19.3 km/h 93% 0 mm 0.00 W/m2
04:13 6.9 °C 5.9 °C 997.9 hPa SE 19.3 km/h 20.9 km/h 93% 0 mm 0.00 W/m2
04:18 6.9 °C 5.9 °C 997.9 hPa SSE 9.7 km/h 19.3 km/h 93% 0 mm 0.00 W/m2
04:23 7 °C 5.9 °C 997.9 hPa SSE 3.2 km/h 19.3 km/h 93% 0 mm 0.00 W/m2
04:28 6.9 °C 5.9 °C 998.2 hPa SSE 9.7 km/h 20.9 km/h 93% 0 mm 0.00 W/m2
04:33 6.9 °C 5.9 °C 998.2 hPa SSE 14.5 km/h 16.1 km/h 93% 0 mm 0.00 W/m2
04:38 6.9 °C 5.9 °C 998.2 hPa SSE 17.7 km/h 22.5 km/h 93% 0 mm 0.00 W/m2
04:43 6.9 °C 5.9 °C 998.5 hPa SE 11.3 km/h 14.5 km/h 93% 0 mm 0.00 W/m2
04:48 7 °C 5.9 °C 998.5 hPa SE 9.7 km/h 12.9 km/h 93% 0 mm 0.00 W/m2
04:53 6.9 °C 5.9 °C 998.5 hPa SE 6.4 km/h 14.5 km/h 93% 0 mm 0.00 W/m2
04:58 7 °C 5.9 °C 998.5 hPa SSE 11.3 km/h 14.5 km/h 93% 0 mm 0.00 W/m2
05:03 6.9 °C 5.9 °C 998.5 hPa SSE 9.7 km/h 14.5 km/h 93% 0 mm 0.00 W/m2
05:08 6.9 °C 5.9 °C 998.5 hPa SSE 6.4 km/h 16.1 km/h 93% 0 mm 0.00 W/m2
05:13 6.9 °C 5.9 °C 998.9 hPa SSE 16.1 km/h 19.3 km/h 93% 0 mm 0.00 W/m2
05:18 6.9 °C 5.9 °C 998.9 hPa SE 3.2 km/h 24.1 km/h 93% 0 mm 0.00 W/m2
05:23 6.9 °C 5.9 °C 998.9 hPa SSE 9.7 km/h 16.1 km/h 93% 0 mm 0.00 W/m2
05:28 6.9 °C 5.9 °C 998.9 hPa SE 8 km/h 19.3 km/h 93% 0 mm 0.00 W/m2
05:33 6.9 °C 5.9 °C 998.9 hPa SSE 3.2 km/h 16.1 km/h 93% 0 mm 0.00 W/m2
05:38 6.9 °C 5.8 °C 998.9 hPa SSE 12.9 km/h 17.7 km/h 93% 0 mm 0.00 W/m2
05:48 6.9 °C 5.8 °C 999.2 hPa Calm   14.5 km/h 93% 0 mm 0.00 W/m2
05:53 6.9 °C 5.8 °C 999.2 hPa SSE 16.1 km/h 16.1 km/h 93% 0 mm 0.00 W/m2
05:58 6.9 °C 5.8 °C 999.2 hPa Calm   20.9 km/h 93% 0 mm 0.00 W/m2
06:03 6.9 °C 5.8 °C 999.2 hPa SSE 9.7 km/h 19.3 km/h 93% 0 mm 0.00 W/m2
06:08 6.8 °C 5.8 °C 999.5 hPa SSE 9.7 km/h 16.1 km/h 93% 0 mm 0.00 W/m2
06:13 6.8 °C 5.8 °C 999.5 hPa SSE 11.3 km/h 14.5 km/h 93% 0 mm 0.00 W/m2
06:18 6.8 °C 5.8 °C 999.5 hPa SSE 16.1 km/h 16.1 km/h 93% 0 mm 0.00 W/m2
06:23 6.8 °C 5.8 °C 999.5 hPa SSE 9.7 km/h 19.3 km/h 93% 0 mm 0.00 W/m2
06:28 6.8 °C 5.8 °C 999.5 hPa SSE 9.7 km/h 16.1 km/h 93% 0 mm 0.00 W/m2
06:33 6.8 °C 5.7 °C 999.5 hPa SSE 14.5 km/h 14.5 km/h 93% 0 mm 0.00 W/m2
06:38 6.8 °C 5.7 °C 999.9 hPa SSE 8 km/h 12.9 km/h 93% 0 mm 0.00 W/m2
06:43 6.8 °C 5.7 °C 999.9 hPa SE 11.3 km/h 14.5 km/h 93% 0 mm 0.00 W/m2
06:48 6.8 °C 5.7 °C 999.9 hPa SSE 12.9 km/h 17.7 km/h 93% 0 mm 0.00 W/m2
06:53 6.8 °C 5.7 °C 999.9 hPa SSE 9.7 km/h 16.1 km/h 93% 0 mm 0.00 W/m2
06:58 6.8 °C 5.7 °C 1000.2 hPa South 1.6 km/h 19.3 km/h 93% 0 mm 0.00 W/m2
07:03 6.7 °C 5.7 °C 1000.2 hPa SE 6.4 km/h 17.7 km/h 93% 0 mm 0.00 W/m2
07:08 6.7 °C 5.7 °C 1000.2 hPa SSE 1.6 km/h 14.5 km/h 93% 0 mm 7.00 W/m2
07:13 6.7 °C 5.7 °C 1000.2 hPa SSE 12.9 km/h 19.3 km/h 93% 0 mm 7.00 W/m2
07:18 6.7 °C 5.7 °C 1000.6 hPa SSE 9.7 km/h 12.9 km/h 93% 0 mm 11.00 W/m2
07:23 6.7 °C 5.7 °C 1000.6 hPa Calm   1.6 km/h 93% 0 mm 14.00 W/m2
07:28 6.7 °C 5.6 °C 1000.6 hPa Calm     93% 0 mm 14.00 W/m2
07:33 6.7 °C 5.7 °C 1000.6 hPa SSE 12.9 km/h 16.1 km/h 93% 0 mm 16.00 W/m2
07:38 6.7 °C 5.7 °C 1000.6 hPa SSE 3.2 km/h 19.3 km/h 93% 0 mm 28.00 W/m2
07:43 6.7 °C 5.7 °C 1000.6 hPa SSE 9.7 km/h 19.3 km/h 93% 0 mm 37.00 W/m2
07:48 6.7 °C 5.7 °C 1000.6 hPa SE 14.5 km/h 19.3 km/h 93% 0 mm 47.00 W/m2
07:53 6.7 °C 5.7 °C 1000.6 hPa South 11.3 km/h 20.9 km/h 93% 0 mm 47.00 W/m2
07:58 6.7 °C 5.7 °C 1000.9 hPa SSE 12.9 km/h 17.7 km/h 93% 0 mm 53.00 W/m2
08:03 6.8 °C 5.7 °C 1000.9 hPa SSE 12.9 km/h 16.1 km/h 93% 0 mm 69.00 W/m2
08:08 6.8 °C 5.7 °C 1000.9 hPa SSE 6.4 km/h 19.3 km/h 93% 0 mm 69.00 W/m2
08:13 6.8 °C 5.7 °C 1000.9 hPa SSE 3.2 km/h 16.1 km/h 93% 0 mm 86.00 W/m2
08:18 6.8 °C 5.8 °C 1000.9 hPa SSE 6.4 km/h 20.9 km/h 93% 0 mm 109.00 W/m2
08:23 6.9 °C 5.8 °C 1000.9 hPa SSE 14.5 km/h 20.9 km/h 93% 0 mm 100.00 W/m2
08:28 6.9 °C 5.9 °C 1001.2 hPa SSE 14.5 km/h 20.9 km/h 93% 0 mm 104.00 W/m2
08:33 7 °C 5.9 °C 1001.2 hPa SSE 14.5 km/h 16.1 km/h 93% 0 mm 97.00 W/m2
08:38 7 °C 5.9 °C 1001.2 hPa Calm   1.6 km/h 93% 0 mm 90.00 W/m2
08:43 7.1 °C 6 °C 1001.6 hPa Calm     93% 0 mm 58.00 W/m2
08:48 7.1 °C 6.1 °C 1001.6 hPa Calm     93% 0 mm 51.00 W/m2
08:53 7.1 °C 6.1 °C 1001.6 hPa Calm     93% 0 mm 63.00 W/m2
08:56 7.2 °C 6.1 °C 1001.6 hPa Calm     93% 0 mm 70.00 W/m2
08:57 7.2 °C 6.1 °C 1001.6 hPa Calm     93% 0 mm 79.00 W/m2
08:58 7.2 °C 6.1 °C 1001.6 hPa Calm     93% 0 mm 84.00 W/m2
09:03 7.2 °C 6.1 °C 1001.6 hPa SSE 14.5 km/h 14.5 km/h 93% 0 mm 77.00 W/m2
09:08 7.2 °C 6.1 °C 1001.6 hPa South 16.1 km/h 17.7 km/h 93% 0 mm 95.00 W/m2
09:13 7.2 °C 6.1 °C 1001.9 hPa South 4.8 km/h 17.7 km/h 93% 0 mm 137.00 W/m2
09:18 7.2 °C 6.2 °C 1001.9 hPa South 14.5 km/h 17.7 km/h 93% 0 mm 127.00 W/m2
09:23 7.3 °C 6.4 °C 1001.9 hPa SSE 8 km/h 17.7 km/h 94% 0 mm 93.00 W/m2
09:28 7.3 °C 6.4 °C 1001.9 hPa SSE 11.3 km/h 17.7 km/h 94% 0 mm 88.00 W/m2
09:33 7.3 °C 6.2 °C 1001.9 hPa South 6.4 km/h 17.7 km/h 93% 0 mm 97.00 W/m2
09:38 7.3 °C 6.3 °C 1001.9 hPa South 16.1 km/h 22.5 km/h 93% 0 mm 104.00 W/m2
09:43 7.3 °C 6.3 °C 1001.9 hPa SSE 14.5 km/h 19.3 km/h 93% 0 mm 125.00 W/m2
09:48 7.4 °C 6.3 °C 1002.3 hPa South 11.3 km/h 17.7 km/h 93% 0 mm 102.00 W/m2
09:53 7.4 °C 6.3 °C 1002.3 hPa South 19.3 km/h 20.9 km/h 93% 0 mm 134.00 W/m2
09:54 7.4 °C 6.3 °C 1002.3 hPa South 8 km/h 20.9 km/h 93% 0 mm 148.00 W/m2
09:59 7.4 °C 6.4 °C 1002.3 hPa South 8 km/h 20.9 km/h 93% 0 mm 104.00 W/m2
10:04 7.4 °C 6.4 °C 1002.3 hPa South 3.2 km/h 19.3 km/h 93% 0 mm 179.00 W/m2
10:09 7.5 °C 6.4 °C 1002.3 hPa South 9.7 km/h 17.7 km/h 93% 0 mm 123.00 W/m2
10:14 7.6 °C 6.5 °C 1002.3 hPa SSW 11.3 km/h 19.3 km/h 93% 0 mm 125.00 W/m2
10:19 7.6 °C 6.6 °C 1002.3 hPa South 22.5 km/h 29 km/h 93% 0 mm 107.00 W/m2
10:24 7.6 °C 6.7 °C 1002.6 hPa SSW 6.4 km/h 22.5 km/h 94% 0 mm 98.00 W/m2
10:29 7.6 °C 6.7 °C 1002.6 hPa Calm   14.5 km/h 94% 0 mm 70.00 W/m2
10:34 7.6 °C 6.7 °C 1002.6 hPa SSW 3.2 km/h 17.7 km/h 94% 0 mm 91.00 W/m2
10:39 7.6 °C 6.7 °C 1002.6 hPa South 4.8 km/h 17.7 km/h 94% 0 mm 62.00 W/m2
10:44 7.6 °C 6.5 °C 1002.6 hPa Calm   17.7 km/h 93% 0 mm 107.00 W/m2
10:49 7.6 °C 6.6 °C 1002.6 hPa South 1.6 km/h 16.1 km/h 93% 0 mm 76.00 W/m2
10:54 7.6 °C 6.6 °C 1002.6 hPa Calm   17.7 km/h 93% 0 mm 86.00 W/m2
10:59 7.6 °C 6.6 °C 1002.6 hPa SSW 4.8 km/h 16.1 km/h 93% 0 mm 83.00 W/m2
11:04 7.6 °C 6.6 °C 1002.6 hPa Calm   1.6 km/h 93% 0 mm 47.00 W/m2
11:09 7.6 °C 6.6 °C 1002.6 hPa Calm     93% 0 mm 105.00 W/m2
11:14 7.6 °C 6.6 °C 1002.9 hPa SW 14.5 km/h 16.1 km/h 93% 0 mm 100.00 W/m2
11:19 7.6 °C 6.6 °C 1002.9 hPa Calm   24.1 km/h 93% 0 mm 109.00 W/m2
11:24 7.6 °C 6.6 °C 1002.9 hPa South 14.5 km/h 19.3 km/h 93% 0 mm 146.00 W/m2
11:29 7.6 °C 6.6 °C 1002.9 hPa SSW 4.8 km/h 19.3 km/h 93% 0 mm 118.00 W/m2
11:34 7.7 °C 6.6 °C 1002.9 hPa South 6.4 km/h 17.7 km/h 93% 0 mm 88.00 W/m2
11:39 7.7 °C 6.6 °C 1002.9 hPa Calm   11.3 km/h 93% 0 mm 51.00 W/m2
11:44 7.7 °C 6.6 °C 1002.9 hPa Calm   12.9 km/h 93% 0 mm 93.00 W/m2
11:45 7.7 °C 6.6 °C 1002.9 hPa Calm   12.9 km/h 93% 0 mm 84.00 W/m2
11:50 7.7 °C 6.7 °C 1002.9 hPa South 9.7 km/h 20.9 km/h 93% 0 mm 105.00 W/m2
11:55 7.7 °C 6.7 °C 1002.9 hPa South 14.5 km/h 20.9 km/h 93% 0 mm 100.00 W/m2
12:00 7.7 °C 6.7 °C 1002.6 hPa South 14.5 km/h 14.5 km/h 93% 0 mm 76.00 W/m2
12:05 7.7 °C 6.7 °C 1002.6 hPa Calm   12.9 km/h 93% 10.41 mm 53.00 W/m2
12:10 7.8 °C 6.7 °C 1002.6 hPa Calm   11.3 km/h 93% 3.05 mm 60.00 W/m2
12:15 7.8 °C 6.7 °C 1002.6 hPa Calm   1.6 km/h 93% 3.05 mm 167.00 W/m2
12:20 7.8 °C 6.8 °C 1002.6 hPa South 12.9 km/h 16.1 km/h 93% 1.52 mm 276.00 W/m2
12:25 7.9 °C 6.8 °C 1002.6 hPa South 11.3 km/h 19.3 km/h 93% 1.02 mm 334.00 W/m2
12:30 7.9 °C 6.9 °C 1002.6 hPa South 6.4 km/h 24.1 km/h 93% 0 mm 257.00 W/m2
12:35 8 °C 6.9 °C 1002.6 hPa South 14.5 km/h 27.4 km/h 93% 0 mm 380.00 W/m2
12:40 8.1 °C 7 °C 1002.6 hPa SSE 14.5 km/h 20.9 km/h 93% 0 mm 339.00 W/m2
12:45 8.1 °C 7.1 °C 1002.6 hPa SSE 12.9 km/h 22.5 km/h 93% 0 mm 499.00 W/m2
12:50 8.2 °C 7.2 °C 1002.6 hPa South 14.5 km/h 20.9 km/h 93% 0 mm 357.00 W/m2
12:55 8.4 °C 7.5 °C 1002.3 hPa South 9.7 km/h 19.3 km/h 94% 0 mm 299.00 W/m2
13:00 8.4 °C 7.6 °C 1002.3 hPa SSE 8 km/h 17.7 km/h 94% 0 mm 163.00 W/m2
13:05 8.6 °C 7.5 °C 1002.3 hPa South 8 km/h 17.7 km/h 93% 0 mm 192.00 W/m2
13:15 8.6 °C 7.5 °C 1002.3 hPa Calm     93% 0 mm 60.00 W/m2
13:20 8.6 °C 7.5 °C 1002.3 hPa SSE 12.9 km/h 17.7 km/h 93% 0 mm 51.00 W/m2
13:25 8.5 °C 7.4 °C 1002.3 hPa Calm   3.2 km/h 93% 0 mm 25.00 W/m2
13:30 8.4 °C 7.4 °C 1002.3 hPa Calm     93% 0 mm 21.00 W/m2
13:35 8.4 °C 7.4 °C 1002.3 hPa Calm     93% 0 mm 30.00 W/m2
13:36 8.4 °C 7.3 °C 1002.3 hPa Calm     93% 0 mm 26.00 W/m2
13:41 8.3 °C 7.3 °C 1002.3 hPa Calm     93% 0 mm 25.00 W/m2
13:46 8.3 °C 7.4 °C 1002.3 hPa Calm   9.7 km/h 94% 0 mm 44.00 W/m2
13:51 8.2 °C 7.2 °C 1002.3 hPa Calm     93% 0 mm 21.00 W/m2
13:56 8.2 °C 7.2 °C 1002.3 hPa Calm     93% 0 mm 14.00 W/m2
14:01 8.2 °C 7.1 °C 1002.6 hPa Calm   1.6 km/h 93% 0 mm 47.00 W/m2
14:06 8.2 °C 7.1 °C 1002.6 hPa Calm   14.5 km/h 93% 0 mm 28.00 W/m2
14:11 8.1 °C 7.1 °C 1002.6 hPa Calm   1.6 km/h 93% 0 mm 62.00 W/m2
14:16 8.2 °C 7.1 °C 1002.6 hPa Calm   1.6 km/h 93% 0 mm 113.00 W/m2
14:21 8.2 °C 7.1 °C 1002.3 hPa Calm   1.6 km/h 93% 0 mm 237.00 W/m2
14:26 8.2 °C 7.2 °C 1002.3 hPa SW 3.2 km/h 17.7 km/h 93% 0 mm 192.00 W/m2
14:31 8.3 °C 7.2 °C 1002.3 hPa SW 8 km/h 19.3 km/h 93% 0 mm 162.00 W/m2
14:36 8.3 °C 7.2 °C 1002.3 hPa Calm   8 km/h 93% 0 mm 114.00 W/m2
14:41 8.3 °C 7.3 °C 1002.6 hPa SSW 3.2 km/h 17.7 km/h 93% 0 mm 74.00 W/m2
14:46 8.3 °C 7.3 °C 1002.6 hPa Calm   11.3 km/h 93% 0 mm 79.00 W/m2
14:51 8.4 °C 7.3 °C 1002.6 hPa Calm   12.9 km/h 93% 0 mm 123.00 W/m2
14:56 8.4 °C 7.4 °C 1002.6 hPa Calm   1.6 km/h 93% 0 mm 267.00 W/m2
15:01 8.4 °C 7.4 °C 1002.6 hPa South 6.4 km/h 20.9 km/h 93% 0 mm 246.00 W/m2
15:06 8.4 °C 7.3 °C 1002.6 hPa South 4.8 km/h 14.5 km/h 93% 0 mm 156.00 W/m2
15:11 8.4 °C 7.4 °C 1002.6 hPa Calm     93% 0 mm 93.00 W/m2
15:16 8.5 °C 7.4 °C 1002.6 hPa Calm     93% 0 mm 120.00 W/m2
15:21 8.5 °C 7.4 °C 1002.6 hPa Calm   3.2 km/h 93% 0 mm 86.00 W/m2
15:26 8.5 °C 7.4 °C 1002.9 hPa SW 9.7 km/h 9.7 km/h 93% 0 mm 223.00 W/m2
15:31 8.5 °C 7.4 °C 1002.9 hPa SSW 4.8 km/h 8 km/h 93% 0 mm 139.00 W/m2
15:36 8.5 °C 7.4 °C 1002.9 hPa Calm     93% 0 mm 91.00 W/m2
15:41 8.4 °C 7.4 °C 1002.9 hPa SW 11.3 km/h 17.7 km/h 93% 0 mm 153.00 W/m2
15:46 8.4 °C 7.4 °C 1002.9 hPa Calm     93% 0 mm 76.00 W/m2
15:51 8.4 °C 7.4 °C 1002.6 hPa South 11.3 km/h 11.3 km/h 93% 0 mm 67.00 W/m2
15:56 8.4 °C 7.4 °C 1002.6 hPa Calm     93% 0 mm 42.00 W/m2
16:01 8.4 °C 7.4 °C 1002.9 hPa Calm     93% 0 mm 60.00 W/m2
16:06 8.4 °C 7.4 °C 1002.9 hPa Calm     93% 0 mm 176.00 W/m2
16:11 8.4 °C 7.4 °C 1002.9 hPa SW 6.4 km/h 11.3 km/h 93% 0 mm 69.00 W/m2
16:16 8.4 °C 7.4 °C 1002.9 hPa Calm     93% 0 mm 62.00 W/m2
16:21 8.5 °C 7.4 °C 1003.3 hPa WSW 4.8 km/h 12.9 km/h 93% 0 mm 18.00 W/m2
16:26 8.4 °C 7.6 °C 1002.9 hPa SSW 1.6 km/h 1.6 km/h 94% 0 mm 32.00 W/m2
16:31 8.4 °C 7.5 °C 1003.3 hPa SSW 9.7 km/h 14.5 km/h 94% 0 mm 47.00 W/m2
16:36 8.3 °C 7.3 °C 1003.3 hPa South 4.8 km/h 14.5 km/h 93% 0 mm 23.00 W/m2
16:41 8.3 °C 7.4 °C 1003.3 hPa South 12.9 km/h 16.1 km/h 94% 0 mm 46.00 W/m2
16:46 8.2 °C 7.3 °C 1003.3 hPa SSW 11.3 km/h 12.9 km/h 94% 0 mm 23.00 W/m2
16:51 8.2 °C 7.3 °C 1003.3 hPa Calm   3.2 km/h 94% 0 mm 23.00 W/m2
16:56 8.2 °C 7.3 °C 1003.3 hPa Calm     94% 0 mm 5.00 W/m2
17:01 8.1 °C 7.2 °C 1003.6 hPa SW 25.7 km/h 25.7 km/h 94% 0 mm 5.00 W/m2
17:06 8.1 °C 7.2 °C 1003.6 hPa SSE 19.3 km/h 20.9 km/h 94% 0 mm 11.00 W/m2
17:11 8 °C 7.1 °C 1003.6 hPa SSW 12.9 km/h 12.9 km/h 94% 0 mm 12.00 W/m2
17:21 7.9 °C 7.1 °C 1003.9 hPa Calm   8 km/h 94% 0 mm 9.00 W/m2
17:26 7.9 °C 7 °C 1003.6 hPa SSW 17.7 km/h 24.1 km/h 94% 0 mm 11.00 W/m2
17:31 7.8 °C 6.9 °C 1003.6 hPa SSW 6.4 km/h 11.3 km/h 94% 0 mm 0.00 W/m2
17:36 7.8 °C 6.9 °C 1003.6 hPa SSW 4.8 km/h 14.5 km/h 94% 0 mm 0.00 W/m2
17:41 7.8 °C 6.9 °C 1003.6 hPa SW 3.2 km/h 11.3 km/h 94% 0 mm 0.00 W/m2
17:46 7.8 °C 6.9 °C 1003.6 hPa SW 1.6 km/h 1.6 km/h 94% 0 mm 0.00 W/m2
17:51 7.8 °C 6.9 °C 1003.6 hPa SSW 3.2 km/h 3.2 km/h 94% 0 mm 0.00 W/m2
17:56 7.7 °C 6.8 °C 1003.9 hPa SSW 4.8 km/h 12.9 km/h 94% 0 mm 0.00 W/m2
18:01 7.7 °C 6.8 °C 1003.9 hPa SW 12.9 km/h 19.3 km/h 94% 0 mm 0.00 W/m2
18:06 7.7 °C 6.6 °C 1003.9 hPa SW 14.5 km/h 17.7 km/h 93% 0 mm 0.00 W/m2
18:11 7.7 °C 6.8 °C 1003.9 hPa SW 14.5 km/h 14.5 km/h 94% 0 mm 0.00 W/m2
18:16 7.6 °C 6.7 °C 1004.3 hPa SW 11.3 km/h 12.9 km/h 94% 0 mm 0.00 W/m2
18:21 7.6 °C 6.7 °C 1004.3 hPa SSW 3.2 km/h 6.4 km/h 94% 0 mm 0.00 W/m2
18:26 7.6 °C 6.5 °C 1004.6 hPa SSW 3.2 km/h 14.5 km/h 93% 0 mm 0.00 W/m2
18:31 7.6 °C 6.5 °C 1004.6 hPa SSW 8 km/h 12.9 km/h 93% 0 mm 0.00 W/m2
18:36 7.5 °C 6.4 °C 1004.6 hPa SSW 3.2 km/h 16.1 km/h 93% 0 mm 0.00 W/m2
18:41 7.4 °C 6.4 °C 1004.6 hPa SSW 3.2 km/h 11.3 km/h 93% 0 mm 0.00 W/m2
18:47 7.4 °C 6.4 °C 1005 hPa Calm   9.7 km/h 93% 0 mm 0.00 W/m2
18:52 7.4 °C 6.5 °C 1005 hPa SW 9.7 km/h 12.9 km/h 94% 0 mm 0.00 W/m2
18:57 7.3 °C 6.4 °C 1005 hPa South 14.5 km/h 14.5 km/h 94% 0 mm 0.00 W/m2
19:02 7.3 °C 6.3 °C 1005 hPa WSW 4.8 km/h 24.1 km/h 93% 0 mm 0.00 W/m2
19:07 7.3 °C 6.2 °C 1005.3 hPa SSW 11.3 km/h 17.7 km/h 93% 0 mm 0.00 W/m2
19:12 7.2 °C 6.2 °C 1005.3 hPa WSW 16.1 km/h 16.1 km/h 93% 0 mm 0.00 W/m2
19:17 7.2 °C 6.1 °C 1005.3 hPa Calm   11.3 km/h 93% 0 mm 0.00 W/m2
19:23 7.1 °C 6.1 °C 1005.6 hPa SSW 22.5 km/h 22.5 km/h 93% 0 mm 0.00 W/m2
19:33 7 °C 6.1 °C 1005.6 hPa Calm   27.4 km/h 94% 0 mm 0.00 W/m2
19:38 6.9 °C 5.9 °C 1006 hPa Calm   17.7 km/h 93% 0 mm 0.00 W/m2
19:43 6.8 °C 5.8 °C 1006 hPa SSE 12.9 km/h 16.1 km/h 93% 0 mm 0.00 W/m2
19:48 6.8 °C 5.7 °C 1006 hPa South 11.3 km/h 17.7 km/h 93% 0 mm 0.00 W/m2
19:53 6.7 °C 5.8 °C 1006 hPa Calm   14.5 km/h 94% 0 mm 0.00 W/m2
19:58 6.7 °C 5.8 °C 1006.3 hPa Calm   16.1 km/h 94% 0 mm 0.00 W/m2
20:03 6.6 °C 5.7 °C 1006.3 hPa South 12.9 km/h 22.5 km/h 94% 0 mm 0.00 W/m2
20:08 6.6 °C 5.5 °C 1006.3 hPa SSE 6.4 km/h 12.9 km/h 93% 0 mm 0.00 W/m2
20:13 6.5 °C 5.4 °C 1006.3 hPa South 11.3 km/h 14.5 km/h 93% 0 mm 0.00 W/m2
20:18 6.5 °C 5.4 °C 1006.3 hPa SSE 3.2 km/h 19.3 km/h 93% 0 mm 0.00 W/m2
20:23 6.4 °C 5.4 °C 1006.7 hPa SSW 12.9 km/h 19.3 km/h 93% 0 mm 0.00 W/m2
20:28 6.4 °C 5.4 °C 1006.3 hPa SSE 12.9 km/h 20.9 km/h 93% 0 mm 0.00 W/m2
20:33 6.4 °C 5.3 °C 1006.7 hPa SSE 14.5 km/h 17.7 km/h 93% 0 mm 0.00 W/m2
20:38 6.3 °C 5.3 °C 1006.7 hPa SSE 16.1 km/h 22.5 km/h 93% 0 mm 0.00 W/m2
20:43 6.3 °C 5.3 °C 1006.7 hPa South 3.2 km/h 16.1 km/h 93% 0 mm 0.00 W/m2
20:48 6.3 °C 5.2 °C 1007 hPa South 14.5 km/h 14.5 km/h 93% 0 mm 0.00 W/m2
20:53 6.3 °C 5.2 °C 1007 hPa South 19.3 km/h 19.3 km/h 93% 0 mm 0.00 W/m2
20:58 6.3 °C 5.2 °C 1007 hPa South 19.3 km/h 25.7 km/h 93% 0 mm 0.00 W/m2
21:03 6.3 °C 5.2 °C 1007.3 hPa South 16.1 km/h 17.7 km/h 93% 0 mm 0.00 W/m2
21:08 6.3 °C 5.2 °C 1007.3 hPa SSW 22.5 km/h 30.6 km/h 93% 0 mm 0.00 W/m2
21:13 6.2 °C 5.2 °C 1007 hPa South 14.5 km/h 19.3 km/h 93% 0 mm 0.00 W/m2
21:18 6.2 °C 5.2 °C 1007 hPa SSE 8 km/h 17.7 km/h 93% 0 mm 0.00 W/m2
21:23 6.2 °C 5.2 °C 1007 hPa SSE 17.7 km/h 20.9 km/h 93% 0 mm 0.00 W/m2
21:28 6.2 °C 5.2 °C 1007 hPa South 22.5 km/h 27.4 km/h 93% 0 mm 0.00 W/m2
21:33 6.2 °C 5.1 °C 1007 hPa SSE 11.3 km/h 16.1 km/h 93% 0 mm 0.00 W/m2
21:38 6.1 °C 5.1 °C 1007 hPa SSE 12.9 km/h 27.4 km/h 93% 0 mm 0.00 W/m2
21:43 6.1 °C 5 °C 1007 hPa SSE 11.3 km/h 22.5 km/h 93% 0 mm 0.00 W/m2
21:48 6.1 °C 5 °C 1007.3 hPa SSE 11.3 km/h 20.9 km/h 93% 0 mm 0.00 W/m2
21:53 6.1 °C 5 °C 1007.3 hPa SSE 17.7 km/h 20.9 km/h 93% 0 mm 0.00 W/m2
21:58 6 °C 4.9 °C 1007.3 hPa SSE 17.7 km/h 20.9 km/h 93% 0 mm 0.00 W/m2
22:03 5.9 °C 4.9 °C 1007.7 hPa South 11.3 km/h 20.9 km/h 93% 0 mm 0.00 W/m2
22:08 5.9 °C 4.8 °C 1008 hPa SSE 12.9 km/h 14.5 km/h 93% 0 mm 0.00 W/m2
22:13 5.8 °C 4.9 °C 1008 hPa South 12.9 km/h 16.1 km/h 94% 0 mm 0.00 W/m2
22:18 5.8 °C 4.8 °C 1008 hPa South 11.3 km/h 20.9 km/h 93% 0 mm 0.00 W/m2
22:23 5.8 °C 4.7 °C 1008 hPa SSE 11.3 km/h 19.3 km/h 93% 0 mm 0.00 W/m2
22:28 5.7 °C 4.6 °C 1008 hPa South 16.1 km/h 20.9 km/h 93% 0 mm 0.00 W/m2
22:33 5.7 °C 4.6 °C 1008 hPa SSE 3.2 km/h 22.5 km/h 93% 0 mm 0.00 W/m2
22:38 5.6 °C 4.7 °C 1008 hPa South 14.5 km/h 19.3 km/h 94% 0 mm 0.00 W/m2
22:43 5.6 °C 4.5 °C 1008 hPa South 14.5 km/h 27.4 km/h 93% 0 mm 0.00 W/m2
22:48 5.4 °C 4.4 °C 1008.4 hPa SSE 8 km/h 20.9 km/h 93% 0 mm 0.00 W/m2
22:53 5.4 °C 4.3 °C 1008 hPa SSE 14.5 km/h 19.3 km/h 93% 0 mm 0.00 W/m2
22:58 5.3 °C 4.4 °C 1008 hPa SSE 11.3 km/h 30.6 km/h 94% 0 mm 0.00 W/m2
23:03 5.2 °C 4.3 °C 1008 hPa SE 29 km/h 29 km/h 94% 0 mm 0.00 W/m2
23:08 5.1 °C 4.1 °C 1008 hPa SSE 14.5 km/h 27.4 km/h 93% 0 mm 0.00 W/m2
23:13 5.1 °C 4 °C 1008 hPa SSE 9.7 km/h 29 km/h 93% 0 mm 0.00 W/m2
23:18 4.9 °C 4.1 °C 1008 hPa SSE 12.9 km/h 32.2 km/h 94% 0 mm 0.00 W/m2
23:23 4.9 °C 4 °C 1008 hPa SSE 14.5 km/h 29 km/h 94% 0 mm 0.00 W/m2
23:28 4.8 °C 3.8 °C 1008 hPa SSE 11.3 km/h 20.9 km/h 93% 0 mm 0.00 W/m2
23:33 4.8 °C 3.7 °C 1008.4 hPa SSE 17.7 km/h 22.5 km/h 93% 0 mm 0.00 W/m2
23:38 4.7 °C 3.7 °C 1008.4 hPa SE 17.7 km/h 29 km/h 93% 0 mm 0.00 W/m2
23:43 4.7 °C 3.8 °C 1008.4 hPa SSE 9.7 km/h 22.5 km/h 94% 0 mm 0.00 W/m2
23:48 4.7 °C 3.8 °C 1008.4 hPa South 20.9 km/h 22.5 km/h 94% 0 mm 0.00 W/m2
23:53 4.7 °C 3.8 °C 1008.4 hPa SSE 20.9 km/h 25.7 km/h 94% 0 mm 0.00 W/m2
23:58 4.6 °C 3.7 °C 1008 hPa South 20.9 km/h 29 km/h 94% 0 mm 0.00 W/m2
Foresthill Weather
 WU-history PHP script courtesy of   Juneau County Weather.
powered by Cumulus v1.9.3 (1059)
Ambient Weather VWS v14.00
Top Contact Website Map Copyright © 2007 - 2018 Foresthillweather.com Never base important decisions on this or any weather information obtained from the Internet